Regional Weather Roundup
Issued by NWS San Angelo, TX

Home | Current Version | Previous Version | Text Only | Print | Product List | Glossary On
Versions: 1 2 3 4 5 6 7 8 9 10 11 12 13 14 15 16 17 18 19 20 21 22 23 24 25 26 27 28 29 30 31 32 33 34 35 36 37 38 39 40 41 42 43 44 45 46 47 48 49 50
000
ASUS44 KSJT 222210
RWRSJT
WEST CENTRAL TEXAS REGIONAL WEATHER ROUNDUP
NATIONAL WEATHER SERVICE SAN ANGELO TX
500 PM CDT WED MAR 22 2017

NOTE: "FAIR" INDICATES FEW OR NO CLOUDS BELOW 12,000 FEET WITH NO
SIGNIFICANT WEATHER AND/OR OBSTRUCTIONS TO VISIBILITY.

TXZ049-054-064>066-071>073-076>078-098-099-113-114-127-128-139-140-
154-155-168>170-222300
...LOCATIONS ACROSS WEST CENTRAL TEXAS...

CITY           SKY/WX    TMP DP  RH WIND       PRES   REMARKS
SAN ANGELO     SUNNY     89  51  27 SE16G22   29.96F
ABILENE        SUNNY     83  57  41 SE17      30.00F
DYESS AFB      SUNNY     85  60  44 S16       29.98F
JUNCTION       SUNNY     82  58  43 SE17G23   30.02F
SWEETWATER     SUNNY     83  53  35 SE13G20   30.03F
BROWNWOOD      SUNNY     82  59  44 S13G23    30.01F
COLEMAN        CLEAR     82  57  41 SE17G23   30.01F
SONORA         SUNNY     82  54  36 S15       30.04F
OZONA            N/A     86  52  30 MISG      30.02F
BRADY          NOT AVBL
$$

TEXAS PANHANDLE/OKLAHOMA PANHANDLE

CITY           SKY/WX    TMP DP  RH WIND       PRES   REMARKS
AMARILLO       SUNNY     69  48  47 S14       30.04F
BORGER         SUNNY     71  48  43 S14G21    30.02F
CANADIAN       CLOUDY    71  47  42 SE13      30.02F
DALHART        NOT AVBL
DUMAS          CLEAR     68  46  44 S13G23    30.02F
GUYMON         NOT AVBL
HEREFORD       CLEAR     74  48  39 SE16      30.04F
PAMPA          CLEAR     71  47  42 S15       30.05F
PERRYTON       SUNNY     71  44  37 S20       30.01F
$$

SOUTHERN PANHANDLE/SOUTH PLAINS/ROLLING PLAINS

CITY           SKY/WX    TMP DP  RH WIND       PRES   REMARKS
LUBBOCK        SUNNY     75  50  41 SE14G23   30.02F
SNYDER         SUNNY     81  56  42 E15       30.01F
CHILDRESS      SUNNY     74  49  41 VRB7      30.03F
SEMINOLE       CLEAR     82  55  38 SE12G21   30.00F
$$

PERMIAN BASIN

CITY           SKY/WX    TMP DP  RH WIND       PRES   REMARKS
MIDLAND        SUNNY     90  50  25 S17G25    29.95F
ODESSA           N/A     89  49  25 SE17      29.96F
WINK             N/A    N/A N/A N/A MISG      29.89F
$$

FAR WEST/SOUTHWEST MOUNTAINS/TRANS PECOS

CITY           SKY/WX    TMP DP  RH WIND       PRES   REMARKS
ALPINE         CLEAR     90  24   9 S14G25    30.07F
DRYDEN           N/A     81  59  47 SE16G26   29.97F
EL PASO        MOSUNNY   92   6   4 SW20G29   29.93F
FORT STOCKTON  SUNNY     90  53  28 SE22G32   29.92F
GUADALUPE PASS SUNNY     77  42  28 E18       30.07F
MARFA          SUNNY     88  28  11 S17G24    30.05F
PECOS          CLEAR     93  44  18 E8        29.88F
$$

DALLAS/FORT WORTH METROPLEX

CITY           SKY/WX    TMP DP  RH WIND       PRES   REMARKS
DFW AIRPORT    PTSUNNY   83  63  50 SE16      30.01F
FTW MEACHAM    MOSUNNY   84  61  45 S14       30.01F
DAL-EXECUTIVE  MOSUNNY   81  63  54 S12G17    30.03F
GRAND PRAIRIE  MOSUNNY   81  61  50 SE10G16   30.05F
ADDISON        NOT AVBL
MESQUITE         N/A     79  64  61 SE14      30.06F
LANCASTER      PTCLDY    79  63  59 S9        30.06F
$$

NORTH CENTRAL TEXAS

CITY           SKY/WX    TMP DP  RH WIND       PRES   REMARKS
SHRMAN/DENISON MOCLDY    68  62  79 E17       30.08F
GAINESVILLE    MOSUNNY   72  62  70 E16       30.06F
BRIDGEPORT     PTCLDY    85  62  45 SE8       30.02F
DENTON         PTSUNNY   82  64  54 S15       30.02F
WAXAHACHIE     PTCLDY    80  64  58 SE12G18   30.05F
GRANBURY       CLEAR     85  60  44 SE9G17    30.02F
$$

WESTERN NORTH TEXAS

CITY           SKY/WX    TMP DP  RH WIND       PRES   REMARKS
WICHITA FALLS  MOSUNNY   80  58  46 SE10      30.00F
VERNON         CLEAR     78  47  33 SE8       30.02F
BRECKENRIDGE   PTCLDY    86  56  35 S15G22    29.99F HAZE
COMANCHE       SUNNY     83  60  46 SE13G22   30.02F
$$

CENTRAL AND SOUTH CENTRAL TEXAS

CITY           SKY/WX    TMP DP  RH WIND       PRES   REMARKS
AUSTIN/BERGSTM MOSUNNY   83  61  47 S15       30.05F
WACO           SUNNY     80  62  54 S13       30.05F
HILLSBORO      PTCLDY    79  64  59 S14G20    30.05F
TEMPLE         SUNNY     80  61  52 S18       30.05F
KILLEEN-GRAY   SUNNY     80  58  47 SE16      30.04F
FORT HOOD      SUNNY     81  59  46 S13       30.03F
GEORGETOWN     MOSUNNY   81  59  47 SE12G17   30.05F
LAGO VISTA     FAIR      81  58  46 S8G16     30.08F
SAN MARCOS     SUNNY     82  61  47 S15       30.07F
NEW BRAUNFELS  MOSUNNY   84  59  42 S13G26    30.04F
RANDOLPH AFB   PTSUNNY   82  61  48 SE15      30.05F
SAN ANTONIO    MOSUNNY   81  60  48 SE16      30.05F
STINSON        MOSUNNY   83  61  47 SE12      30.03F
PLEASANTON     NOT AVBL
LA GRANGE      MOSUNNY  N/A N/A N/A S12G18    30.05F
GIDDINGS       PTCLDY    82  59  46 S8        30.07F
$$

EAST TEXAS

CITY           SKY/WX    TMP DP  RH WIND       PRES   REMARKS
PARIS          MOSUNNY   72  57  60 SE7       30.12F
CLARKSVILLE    NOT AVBL
TYLER          PTSUNNY   76  61  59 CALM      30.09F
LONGVIEW       PTSUNNY   79  60  52 S3        30.09F
PALESTINE      CLEAR     81  61  50 S6        30.09F
NACOGDOCHES    SUNNY     81  57  44 SW9       30.08S
$$

TEXAS HILL COUNTRY AND EDWARDS PLATEAU

CITY           SKY/WX    TMP DP  RH WIND       PRES   REMARKS
LLANO          CLEAR     82  61  47 SE13G22   30.06F
HORSESHOE BAY  FAIR      82  58  45 S13G20    30.05F
KERRVILLE      SUNNY     78  64  61 S13       30.06F
FREDERICKSBRG  SUNNY     77  56  48 SE12G17   30.06F
ROCKSPRINGS    CLEAR     73  63  68 S14G22    30.08F
HONDO          PTSUNNY   82  64  54 SE15      30.04F
UVALDE         CLOUDY    74  65  74 E10       30.05F
DEL RIO        MOSUNNY   78  65  63 E15       29.98F
$$

SOUTHEAST TEXAS

CITY           SKY/WX    TMP DP  RH WIND       PRES   REMARKS
COLLEGE STN    SUNNY     83  59  44 S10       30.07F
CALDWELL       NOT AVBL
CROCKETT       MOCLDY    81  59  47 S7        30.11F
BRENHAM        MOSUNNY   84  58  41 S13G18    30.08F
HUNTSVILLE     MOSUNNY   82  55  39 S8        30.09S
CONROE         MOSUNNY   82  56  40 S10       30.08F
HOUSTON BUSH   MOSUNNY   84  58  40 S9        30.08F
HOUSTON HOBBY  MOSUNNY   83  59  44 S9        30.08F
PERLAND        MOSUNNY   83  62  49 S14G22    30.10F
WHARTON        CLEAR     82  58  44 S16       30.09F
$$

THE UPPER TEXAS COAST

CITY           SKY/WX    TMP DP  RH WIND       PRES   REMARKS
ORANGE         CLEAR     79  65  62 S9        30.13S
PORT ARTHUR    SUNNY     81  64  56 S7        30.11S
GALVESTON      SUNNY     77  68  73 S12       30.12F
ANGLETON       SUNNY     80  64  58 S13       30.10F
BAY CITY       CLEAR     80  65  58 S12       30.10F
$$

TEXAS COASTAL BEND, RIO GRANDE PLAINS DEEP SOUTH TEXAS

CITY           SKY/WX    TMP DP  RH WIND       PRES   REMARKS
VICTORIA       MOSUNNY   81  64  56 S17G23    30.09S
BEEVILLE       FAIR      82  66  58 SE15      30.06F
ROCKPORT       SUNNY     79  66  64 SE15G24   30.09F
PORT ARANSAS   CLEAR     76  68  75 SE12      30.09F
PORT LAVACA    PTCLDY    79  67  66 S12G18    30.10S
CORPUS CHRISTI MOSUNNY   80  66  62 SE23      30.06F
KINGSVILLE NAS MOSUNNY   83  68  60 SE18G29   30.04F
COTULLA        MOSUNNY   87  63  44 SE20G26   30.01F
LAREDO         SUNNY     88  62  41 SE17G24   29.99F
BROWNSVILLE    SUNNY     81  65  58 SE22G28   30.07F
PORT ISABEL    MOSUNNY   82  66  58 SE18G28   30.06F
HEBBRONVILLE   PTCLDY    85  56  37 SE10G16   30.03F
MCALLEN        MOSUNNY   87  62  43 S16G28    30.03F
WESLACO        MOSUNNY   85  62  46 S18G24    30.03F
FALFURRIAS     MOCLDY    87  56  34 SE9G17    30.02F
EDINBURG       PTCLDY    88  56  33 SE17      30.03F
$$



USA.gov is the U.S. government's official web portal to all federal, state and local government web resources and services.